User: anonymous   Login
Location: San Pelegr�n
(42.1868°N, 0.0079°E)
Time: 08:15:49
(UTC+00:00)
Language:

USA 238 DEB - Orbit

View from above orbital plane
View from above orbital plane
View from above satellite
View from above satellite

Ground track
Ground track

The orbit data is extracted from the following two-line orbital elements,

1 38773U 12048P   20154.87476115 0.00000000  00000-0  00000-0 0    07
2 38773  63.4397  68.3323 0119663   0.3490 359.6509 13.40801721    03
Epoch (UTC): 02 June 2020 20:59:39
Eccentricity: 0.0119663
inclination: 63.4397°
perigee height: 1017 km
apogee height: 1196 km
right ascension of ascending node: 68.3323°
argument of perigee: 0.3490°
revolutions per day: 13.40801721
mean anomaly at epoch: 359.6509°
orbit number at epoch: 0

The dashed part of the orbit path shows where the satellite is in the earth's shadow,  

DLR